Weather in Chelutay

Russia / Zabaykalsky Krai     51°13′11″N   114°22′17″E
temp.,
°C
wind,
m/s
gust,
m/s
humid.,
%
clouds,
%
prec.,
mm/h
press.,
hPa
HPBL,
m
27 november, sat
sat2700:00−14ese21100100 0.0 102229
03:00−15ese11100100 0.1 102211
06:00−15nw1199100 0.0 10239
09:00−13nw2396100 0.0 102546
12:00−8wnw397292 0.0 1024307
15:00−7nw51375100 0.0 1024444
18:00−6nw61378100 0.0 1025488
21:00−6nw61173100 0.0 1027501
28 november, sun
sun2800:00−7nw61176100 0.0 1029449
03:00−9wnw61173100 0.0 1030404
06:00−11nw61176100 0.0 1031433
09:00−12nw61276100 0.0 1032494
12:00−11nw71267100 0.0 1033629
15:00−10nw711605 0.0 1031867
18:00−13nw512720 0.0 1033475
21:00−14nw410791 0.0 1034270
29 november, mon
mon2900:00−18w229484 0.0 103516
03:00−18wsw1194100 0.0 10349
06:00−16wsw1188100 0.0 103213
09:00−16wsw1185100 0.0 103112
12:00−11wnw3662100 0.0 1030357
15:00−9wnw486146 0.0 1027651
18:00−14wnw28896 0.0 1029121
21:00−12wnw5138592 0.0 1029491
30 november, tue
tue3000:00−12wnw514885 0.0 1029470
03:00−12wnw6159056 0.0 1029522
06:00−12wnw6158629 0.0 1028590
09:00−12wnw615885 0.0 1028533
12:00−10wnw613745 0.0 1027815
15:00−8wnw61169100 0.0 10251051
18:00−10nw4127936 0.0 1025372
21:00−11wnw411865 0.0 1026287
1 december, wed
wed100:00−12wnw39905 0.0 1025157
03:00−12w38915 0.0 1024161
06:00−12w310865 0.0 1021215
09:00−10w5148213 0.0 1018405
12:00−4wnw8186275 0.0 10131168
15:00−3w82052100 0.0 10081388
18:00−5wnw102065100 0.0 10081811
21:00−7nw10196261 0.1 10081372